Forside
METAR-TAF:

METAR-TAF

Lufthavne :

Anoka County-Blaine Airport (Janes Field)

Minneapolis / Blaine, Minnesota, USA

Breddekreds: 45-09N, længdekreds: 093-13W, højde: 278 m

Aktuelle vejr

Denne rapport blev lavet for 1 time og 18 minutter siden, kl. 19:45 UTC
Vind 7 kt fra vestsydvest
Temperatur 11°C
Fugtighed 43%
Tryk 1022 hPa
Sigt: 16.1 km
Overskyet i en højde af 6000 ft

METAR: KANE 051945Z 25007KT 10SM OVC060 11/M01 A3018

Tid: 16:03 (21:03 UTC)


TAF: fraværende

Vejrobservationer og prognoser fra mere end 4000 lufthavne (METAR og TAF).

De gule og røde prikker repræsenterer de meteorologiske stationer.

Flyt musen over at se navnet på stationen.

Så klik over at se vejr observationer og prognoser.

At skifte det kort: Klik på de grønne knapper med et sort kors for at zoome ind; på den grønne knap med en bindestreg for at zoome ud; eller på de grønne pile for tilstødende kort.


METAR-TAF: